[Date Prev][Date Next][Thread Prev][Thread Next] - [Date Index][Thread Index][Author Index]

2 Line ISS Keps 2-12



ISS
1 25544U 98067A   09043.09503594  .00003682  00000-0  33656-4 0  2541
2 25544 051.6410 227.5020 0008680 017.5983 081.6728 15.70856935586271
----
Sent via sarex@amsat.org. Opinions expressed are those of the author.
Not an AMSAT member? Join now to support the amateur satellite program!
Subscription settings: http://amsat.org/mailman/listinfo/sarex



AMSAT Top AMSAT Home